www.pogodaiklimat.ru

Погода и климат >> Архив погоды >> Россия >> Краснодарский край >> Новороссийск


АРХИВ ПОГОДЫ в Новороссийске

Время (UTC), дата Ветер
(напр.,м/с)
 
Видим.   Явления Облачность Т
(С)
Тd
(С)
f
(%)
Тe
(С)
Тes
(С)
Комфортность P
(гПа)
Po
(гПа)
Тmin
(С)
Tmax
(С)
R
(мм)
R24
(мм)
S
(см)
09 12.03 СВ 8-15
{17}
20 км {ливн. осадки} 9/8 600 м
[Sc Ac trans]
+8.9 +1.0 58 +5 +5 тепло 1009.5 1008.1
12 12.03 СВ 9-15
{17}
20 км {ливн. осадки} 10/4 600 м
[Sc Ac As]
+9.8 +2.1 59 +6 +6 по сезону 1008.3 1007.0
15 12.03 СВ 6-12
{16}
20 км 10/10 600 м
[Cb cap]
+10.5 +2.3 57 +8 +8 тепло 1008.3 1007.0 +12.3 0.4
18 12.03 штиль 0
{12}
10 км слаб. ливневой дождь 10/10 600 м
[Cb cap]
+8.7 +5.8 82 +8 +8 тепло 1010.5 1009.1
21 12.03 СВ 8-13
{14}
10 км слаб. ливневой дождь 10/10 600 м
[Cb cap]
+4.9 +1.6 79 -1 -1 по сезону 1011.3 1009.9
00 13.03 СВ 9-14
{14}
10 км {ливн. осадки} 10/10 600 м
[Sc]
+3.9 +0.2 77 -3 -3 по сезону 1011.7 1010.3
03 13.03 СВ 9-15
{16}
10 км слаб. ливневой дождь 10/10 600 м
[Cb cap]
+3.6 +0.3 79 -3 -3 по сезону 1011.4 1010.0 +3.5 9
06 13.03 СВ 10-19
{19}
4000 м слаб. ливневой дождь со снегом 10/10 600 м
[Cb cap]
+2.4 -0.7 80 -5 -5 прохладно 1012.1 1010.7 +2.1
09 13.03 СВ 9-15
{20}
4000 м слаб. ливневой дождь 10/10 300 м
[Cb cap]
+3.3 -0.1 78 -3 -3 прохладно 1012.4 1011.1
12 13.03 СВ 9-15
{17}
20 км {ливн. осадки} 10/6 600 м
[Cb calv Ac As]
+3.4 -0.1 78 -3 -3 холодно 1013.6 1012.2
15 13.03 СВ 10-16
{18}
20 км 9/4 600 м
[Sc diur, vesp Ac cuf Cc]
+4.5 -0.5 70 -2 -2 прохладно 1014.4 1013.1 +4.6 17
18 13.03 СВ 10-16
{19}
10 км ясно +4.3 -1.7 65 -2 -2 по сезону 1015.5 1014.1
21 13.03 СВ 9-16
{17}
10 км ясно +3.7 -2.3 65 -3 -3 по сезону 1016.3 1014.9
00 14.03 СВ 10-16
{18}
10 км ясно +3.4 -3.1 62 -3 -3 по сезону 1016.1 1014.7
03 14.03 СВ 11-18
{19}
10 км ясно +3.3 -1.6 70 -4 -4 прохладно 1015.9 1014.5 +2.7
06 14.03 СВ 12-18
{19}
20 км 3/3 600 м
[Sc]
+3.9 -0.9 71 -3 -3 по сезону 1015.2 1013.8
09 14.03 СВ 8-13
{19}
20 км 8/3 600 м
[Sc Ac trans]
+6.6 +0.2 64 +2 +2 по сезону 1014.0 1012.6
12 14.03 СВ 6-12
{15}
20 км 9/3 600 м
[Sc Ac As]
+8.7 +1.5 61 +5 +6 по сезону 1012.9 1011.6
15 14.03 СВ 6-12
{14}
20 км 8/0
[Ac As Ci fib]
+6.5 +1.1 68 +2 +2 по сезону 1012.1 1010.8 +9.0
18 14.03 В 1
{10}
10 км 9/9 600 м
[Sc]
+7.7 +2.1 68 +7 +7 тепло 1011.3 1009.9
21 14.03 СВ 2 10 км 8/0
[Ac As Ci fib]
+6.0 +2.1 76 +4 +4 тепло 1010.0 1008.7
00 15.03 штиль 0 10 км 10/10 600 м
[Sc]
+6.5 +3.2 79 +6 +6 тепло 1009.5 1008.1
03 15.03 штиль 0 10 км 10/10 600 м
[Sc]
+7.4 +4.2 80 +7 +7 тепло 1009.0 1007.6 +5.5
06 15.03 ЮВ 1 20 км 10/10 600 м
[Sc]
+8.7 +4.8 76 +8 +8 тепло 1008.8 1007.4
09 15.03 Ю 1 20 км 10/10 600 м
[Cu Sc]
+9.3 +4.6 72 +9 +9 тепло 1008.2 1006.9
12 15.03 Ю 2 20 км 10/10 600 м
[Cu Sc]
+9.0 +4.8 75 +7 +7 тепло 1008.2 1006.8
15 15.03 Ю 1 20 км слаб. ливневой дождь 10/10 300 м
[Cb cap]
+8.5 +4.7 77 +8 +8 тепло 1007.7 1006.4 +10.2
18 15.03 штиль 0 10 км в посл. час ливневой дождь 10/10 300 м
[Cb calv]
+7.4 +4.9 84 +7 +7 тепло 1009.0 1007.7
21 15.03 штиль 0 10 км 10/10 300 м
[Sc diur, vesp]
+6.9 +4.2 83 +6 +6 тепло 1009.4 1008.1
00 16.03 СВ 1 10 км 10/10 300 м
[Sc]
+6.4 +3.5 82 +5 +5 тепло 1009.4 1008.1
03 16.03 СВ 2 10 км 10/8 300 м
[Sc Ac lent Cc]
+6.7 +2.1 72 +5 +5 тепло 1009.4 1008.0 +6.4 2
06 16.03 штиль 0 20 км 9/8 600 м
[Sc Ac trans]
+7.5 +0.1 59 +7 +8 тепло 1009.7 1008.4
09 16.03 С 1 20 км 8/3 600 м
[Sc Ac trans Ci fib]
+10.1 +1.2 54 +10 +16 тепло 1009.5 1008.2
12 16.03 З 1 20 км 9/4 600 м
[Sc Ac trans Cc]
+11.0 -0.4 45 +11 +14 тепло 1009.1 1007.8
15 16.03 ЮЗ 4 20 км 4/3 600 м
[Sc Cc]
+9.1 +1.5 59 +7 +7 тепло 1010.2 1008.9 +11.1
18 16.03 ЮЗ 4 10 км 6/3 600 м
[Sc Cc]
+8.1 +2.2 66 +5 +5 тепло 1011.3 1009.9
21 16.03 Ю 3 10 км 6/4 600 м
[Sc Ci fib]
+7.8 +2.6 70 +5 +5 тепло 1010.3 1008.9
00 17.03 Ю 4 10 км 8/5 600 м
[Sc Ci fib]
+7.8 +2.9 71 +5 +5 тепло 1007.8 1006.4
03 17.03 Ю 4
{10}
10 км слаб. ливневой дождь 10/10 600 м
[Cb cap]
+6.8 +2.3 73 +3 +3 по сезону 1007.5 1006.1 +6.8 0.7
06 17.03 ЮВ 3-12
{12}
4000 м слаб. ливневой дождь 10/10 300 м
[Cb cap]
+5.8 +2.7 80 +3 +3 по сезону 1007.9 1006.6 +5.7
09 17.03 З 4
{12}
4000 м дымка {ливн. осадки} 10/10 300 м
[Cb calv]
+8.3 +3.7 73 +5 +5 по сезону 1008.9 1007.6
12 17.03 З 2 10 км в посл. час ливневой дождь 10/10 300 м
[Cb cap]
+7.0 +3.3 77 +5 +5 по сезону 1012.3 1010.9
15 17.03 З 1 20 км 6/3 600 м
[Sc diur, vesp Ac trans]
+8.1 +2.6 68 +8 +8 тепло 1015.1 1013.7 +8.7 8
18 17.03 СВ 2 10 км 4/4 600 м
[Sc]
+6.5 +3.0 78 +4 +4 по сезону 1017.8 1016.5
21 17.03 С 1 10 км слаб. ливневой дождь 9/5 600 м
[Cb cap Ac trans]
+7.0 +3.3 77 +6 +6 тепло 1018.6 1017.3
00 18.03 СВ 1 10 км {ливн. осадки} 5/5 600 м
[Sc]
+6.4 +2.6 77 +5 +5 тепло 1019.5 1018.1
03 18.03 СВ 1 10 км 6/3 600 м
[Sc Ac trans]
+5.4 +2.6 82 +4 +4 по сезону 1020.9 1019.5 +4.9 0.5
06 18.03 Ю 1 20 км 8/4 300 м
[Sc diur, vesp Ac As]
+7.5 +3.6 76 +7 +8 тепло 1022.9 1021.6
09 18.03 Ю 2 20 км 8/3 600 м
[Cb calv Ac trans]
+9.1 +3.4 67 +8 +12 тепло 1023.6 1022.2
12 18.03 Ю 2 20 км 8/4 600 м
[Cb calv Ac As]
+9.6 +3.8 67 +8 +10 тепло 1023.9 1022.5
15 18.03 Ю 1 20 км 3/0
[Ac trans]
+9.2 +4.0 70 +9 +9 тепло 1023.7 1022.3 +10.5
18 18.03 СВ 1 10 км 1/0
[Ac trans]
+6.5 +3.3 80 +6 +6 тепло 1024.5 1023.1
21 18.03 СВ 1 10 км ясно +7.3 +2.8 73 +7 +7 тепло 1023.8 1022.4
00 19.03 С 1 10 км ясно +8.9 +0.9 57 +9 +9 тепло 1023.7 1022.4
03 19.03 СВ 1 10 км ясно +5.5 +1.3 74 +5 +5 тепло 1023.8 1022.4 +5.5
06 19.03 ЮЗ 2 20 км ясно +8.6 +3.1 68 +7 +11 тепло 1024.4 1023.0

 

Местоположение метеостанции Новороссийск (Краснодарский край, Россия): широта 44.72 долгота 37.85 высота над уровнем моря 3 м.

В архиве по умолчанию представлена погода в Новороссийске за последнюю неделю. Архивные данные за месяц целиком и за предыдущие месяцы, начиная с января 2011 года, Вы можете получить, выбрав интересующий диапазон дат из раскрывающегося списка и нажав кнопку "Ввод!".


*Определитесь, кто Вы:
робот инопланетянин человек

Внимание! Время в таблицах - всемирное. Для получения местного времени необходимо прибавить поправку, которая равна 3 ч.

Смотрите также архив погоды в соседних городах и на ближайших метеорологических станциях:

Погода в Геленджике (Краснодарский край, Россия) (25 км)
Погода в Крымске (Краснодарский край, Россия) (25 км)
Погода в Анапе (Краснодарский край, Россия) (48 км)
Погода в Славянске-на-Кубани (Краснодарский край, Россия) (66 км)
Погода в Темрюке (Краснодарский край, Россия) (76 км)
Погода в Джубге (Краснодарский край, Россия) (81 км)
Погода в Горячем Ключе (Краснодарский край, Россия) (99 км)
Погода в Краснодаре (Краснодарский край, Россия) (100 км)
Погода в Тамани (Краснодарский край, Россия) (105 км)
Погода в Туапсе (Краснодарский край, Россия) (119 км)

Пояснения к столбцам:

Ветер - указаны скорость ветра в м/с - средняя за 10 мин, порывы в срок и между сроками (в фигурных скобках) и направление, откуда дует ветер: С - северный, СВ - северо-восточный, В - восточный, ЮВ - юго-восточный, Ю - южный, ЮЗ - юго-западный, З - западный, СЗ - северо-западный.
Видимость - горизонтальная дальность видимости в метрах или километрах. При видимости от 1 до 10 км при отсутствии осадков обычно наблюдается дымка, при ухудшении видимости до 1 км и менее - туман. В сухую погоду видимость может ухудшаться дымом, пылью или мглою.
Явления - указаны атмосферные явления, наблюдавшиеся в срок или в последний час перед сроком; фигурными скобками обозначены явления, наблюдавшиеся между сроками (за 1-3 часа до срока); квадратными скобками обозначены град или гололедные отложения с указанием их диаметра в мм.
Облачность - указаны через наклонную черту общая и нижняя облачность в баллах и высота нижней границы облаков в метрах; квадратными скобками обозначены формы облаков: Ci - перистые, Cs - перисто-слоистые, Cc - перисто-кучевые, Ac - высококучевые, As - высокослоистые, Sc - слоисто-кучевые, Ns - слоисто-дождевые, Cu - кучевые, Cb - кучево-дождевые. Подробнее классификацию облаков см. в Атласе облаков (PDF).
T - Температура воздуха - температура, измеренная на высоте 2 м над землей.
Td - Температура точки росы - температура, при понижении до которой содержащийся в воздухе водяной пар достигнет насыщения.
f - Относительная влажность воздуха - влажноcть воздуха, измеренная на высоте 2 м над землей.
Te - Эффективная температура - температура, которую ощущает одетый по сезону человек в тени. Характеристика душности погоды. При расчете учитывается влияние влажности воздуха и скорости ветра на теплоощущения человека.
Tes - Эффективная температура на солнце - температура, которую ощущает человек, с поправкой на солнечный нагрев. Характеристика знойности погоды. Зависит от высоты солнца над горизонтом, облачности и скорости ветра. Ночью, в пасмурную погоду, а также при ветре 12 м/с и более поправка равна нулю.
P - Атмосферное давление - приведенное к уровню моря атмосферное давление.
Po - Атмосферное давление - измеренное на уровне метеостанции атмосферное давление.
Tmin - Минимальная температура - минимум температуры воздуха на высоте 2 м над землей.
Tmax - Максимальная температура - максимум температуры воздуха на высоте 2 м над землей.
R - Количество осадков - Количество выпавших осадков за период времени, мм. При наведении курсора мыши на число - период времени, за который выпало указанное количество осадков.
R24 - Количество осадков - Количество выпавших осадков за 24 часа, мм.
S - Снежный покров - Высота снежного покрова, см. При наведении курсора мыши на число - состояние снежного покрова и степень покрытия местности в баллах.